TimeCDT,TemperatureF,Dew PointF,Humidity,Sea Level PressureIn,VisibilityMPH,Wind Direction,Wind SpeedMPH,Gust SpeedMPH,PrecipitationIn,Events,Conditions,WindDirDegrees,DateUTC
12:53 AM,80.1,60.1,50,30.05,9.0,SE,12.7,-,N/A,,Clear,140,2013-09-06 05:53:00
1:53 AM,79.0,60.1,52,30.05,9.0,SE,10.4,-,N/A,,Clear,140,2013-09-06 06:53:00
2:53 AM,78.1,59.0,52,30.05,9.0,SSE,10.4,-,N/A,,Clear,160,2013-09-06 07:53:00
3:53 AM,78.1,59.0,52,30.04,9.0,SSE,11.5,-,N/A,,Clear,150,2013-09-06 08:53:00
4:53 AM,77.0,57.9,52,30.04,9.0,SSE,9.2,-,N/A,,Clear,150,2013-09-06 09:53:00
5:53 AM,75.9,57.0,52,30.04,9.0,South,9.2,-,N/A,,Clear,170,2013-09-06 10:53:00
6:53 AM,75.9,55.9,50,30.04,9.0,South,12.7,-,N/A,,Clear,170,2013-09-06 11:53:00
7:53 AM,75.9,55.9,50,30.06,8.0,South,10.4,-,N/A,,Clear,170,2013-09-06 12:53:00
8:53 AM,78.1,55.9,46,30.07,8.0,South,11.5,-,N/A,,Clear,170,2013-09-06 13:53:00
9:53 AM,81.0,57.0,44,30.06,7.0,South,13.8,-,N/A,,Clear,170,2013-09-06 14:53:00
10:53 AM,84.0,60.1,44,30.07,7.0,South,11.5,-,N/A,,Clear,170,2013-09-06 15:53:00
11:53 AM,88.0,63.0,43,30.06,7.0,South,9.2,-,N/A,,Clear,170,2013-09-06 16:53:00
12:53 PM,90.0,64.0,42,30.04,7.0,South,8.1,-,N/A,,Clear,190,2013-09-06 17:53:00
1:53 PM,91.9,64.0,39,30.02,7.0,SSW,8.1,-,N/A,,Clear,210,2013-09-06 18:53:00
2:53 PM,93.0,63.0,37,30.00,7.0,South,5.8,-,N/A,,Clear,180,2013-09-06 19:53:00
3:53 PM,93.9,62.1,35,29.97,7.0,Calm,Calm,-,N/A,,Partly Cloudy,0,2013-09-06 20:53:00
4:53 PM,95.0,59.0,30,29.96,7.0,SSE,6.9,-,N/A,,Clear,150,2013-09-06 21:53:00
5:53 PM,93.9,59.0,31,29.95,7.0,South,8.1,-,N/A,,Clear,170,2013-09-06 22:53:00
6:53 PM,91.9,60.1,34,29.94,7.0,SE,8.1,-,N/A,,Clear,140,2013-09-06 23:53:00
7:53 PM,89.1,59.0,36,29.94,7.0,SE,6.9,-,N/A,,Clear,130,2013-09-07 00:53:00
8:53 PM,87.1,61.0,41,29.95,8.0,SE,8.1,-,N/A,,Clear,130,2013-09-07 01:53:00
9:53 PM,86.0,61.0,43,29.96,8.0,SE,11.5,-,N/A,,Clear,140,2013-09-07 02:53:00
10:53 PM,84.9,61.0,44,29.96,8.0,SE,10.4,-,N/A,,Clear,140,2013-09-07 03:53:00
11:53 PM,82.9,61.0,47,29.96,7.0,SE,11.5,-,N/A,,Clear,140,2013-09-07 04:53:00